TimeEST,TemperatureF,Dew PointF,Humidity,Sea Level PressureIn,VisibilityMPH,Wind Direction,Wind SpeedMPH,Gust SpeedMPH,PrecipitationIn,Events,Conditions,WindDirDegrees,DateUTC
12:51 AM,8.1,-7.1,50,29.86,10.0,North,16.1,20.7,N/A,,Overcast,360,2014-01-22 05:51:00
1:51 AM,7.0,-8.0,51,29.84,10.0,North,12.7,19.6,N/A,,Overcast,350,2014-01-22 06:51:00
2:51 AM,7.0,-8.0,51,29.83,10.0,North,10.4,19.6,N/A,,Overcast,10,2014-01-22 07:51:00
3:51 AM,6.1,-9.0,50,29.83,10.0,North,12.7,-,N/A,,Clear,350,2014-01-22 08:51:00
4:51 AM,5.0,-9.0,52,29.81,10.0,North,11.5,18.4,N/A,,Clear,360,2014-01-22 09:51:00
5:51 AM,5.0,-9.9,50,29.81,10.0,North,9.2,-,N/A,,Clear,10,2014-01-22 10:51:00
6:51 AM,3.9,-9.9,53,29.80,10.0,North,11.5,20.7,N/A,,Mostly Cloudy,350,2014-01-22 11:51:00
7:51 AM,3.9,-9.9,53,29.79,10.0,North,13.8,-,N/A,,Overcast,360,2014-01-22 12:51:00
8:51 AM,6.1,-9.9,48,29.76,10.0,North,15.0,24.2,N/A,,Clear,360,2014-01-22 13:51:00
9:51 AM,8.1,-9.0,46,29.74,10.0,North,10.4,23.0,N/A,,Clear,360,2014-01-22 14:51:00
10:51 AM,10.0,-8.0,44,29.70,10.0,North,18.4,25.3,N/A,,Clear,10,2014-01-22 15:51:00
11:51 AM,14.0,-7.1,39,29.63,10.0,North,13.8,20.7,N/A,,Clear,360,2014-01-22 16:51:00
12:51 PM,17.1,-6.0,36,29.62,10.0,NNW,17.3,25.3,N/A,,Clear,340,2014-01-22 17:51:00
1:51 PM,18.0,-6.0,35,29.61,10.0,North,15.0,23.0,N/A,,Clear,10,2014-01-22 18:51:00
2:51 PM,17.1,-5.1,37,29.65,10.0,WNW,10.4,-,N/A,,Clear,300,2014-01-22 19:51:00
3:51 PM,17.1,-4.0,39,29.67,10.0,WNW,10.4,-,N/A,,Clear,300,2014-01-22 20:51:00
4:51 PM,15.1,-5.1,41,29.70,10.0,WNW,9.2,-,N/A,,Clear,300,2014-01-22 21:51:00
5:51 PM,10.9,-7.1,44,29.71,10.0,WNW,6.9,-,N/A,,Clear,290,2014-01-22 22:51:00
6:51 PM,9.0,-7.1,48,29.73,10.0,WNW,8.1,-,N/A,,Clear,300,2014-01-22 23:51:00
7:51 PM,7.0,-8.0,51,29.76,10.0,WNW,5.8,-,N/A,,Clear,300,2014-01-23 00:51:00
8:51 PM,6.1,-8.0,53,29.79,10.0,WNW,6.9,-,N/A,,Clear,300,2014-01-23 01:51:00
9:51 PM,5.0,-8.0,55,29.81,10.0,WNW,5.8,-,N/A,,Clear,300,2014-01-23 02:51:00
10:51 PM,1.9,-9.0,60,29.83,10.0,Calm,Calm,-,N/A,,Clear,0,2014-01-23 03:51:00
11:51 PM,1.0,-8.0,66,29.84,10.0,Calm,Calm,-,N/A,,Clear,0,2014-01-23 04:51:00